Simultaneous Nadir Overpasses (SNOs) Predictions

Prediction of SNOs between AQUA and GOES-15 Satellite Orbit:

Table of predicted SNOs for the next 14.0 days since TLE Epoch: 11/18/2023
Index Date Time (AQUA) AQUA Lat,Lon GOES-15 Lat,Lon Distance(km) Time Diff (sec)
1 11/19/2023 09:37:38 0.62, 64.77 -0.05, 61.66 353.70 80
2 11/19/2023 21:58:10 0.41, 59.80 0.02, 61.60 204.93 80
3 11/21/2023 21:43:09 -0.37, 63.46 0.03, 61.54 218.14 80
4 11/22/2023 10:03:49 -0.66, 58.45 -0.01, 61.59 356.28 80
5 11/24/2023 09:48:47 0.11, 62.12 -0.01, 61.53 67.29 80
6 11/24/2023 22:09:19 0.91, 57.15 -0.01, 61.45 489.63 80
7 11/26/2023 09:33:45 0.90, 65.79 -0.02, 61.48 490.74 80
8 11/26/2023 21:54:17 0.11, 60.81 0.00, 61.41 66.75 80
9 11/28/2023 21:39:14 -0.66, 64.49 0.02, 61.37 355.85 80
10 11/29/2023 09:59:54 -0.39, 59.49 0.00, 61.42 219.88 80
11 12/01/2023 09:44:50 0.36, 63.17 -0.00, 61.38 202.84 80
12 12/01/2023 22:05:22 0.64, 58.19 -0.02, 61.30 353.19 80
